Level Island FAA Web Cam AK US FAA-ALASKA current weather conditions

sailwx.info

Wind from 102 at 3 knots

Air temperature 11.6° C
Dewpoint 5.7° C

Last reported at 2020-Jun-06 21:40 UTC.
Time now 2020-Jun-06 22:43 UTC

Location: N 56°28' W 133°05'.
View on Google Maps.

See reports from other nearby stations

  
Tides and Currents Weather Stations Pressure Air Temp Water Temp Dewpoint Dewpoint Depression Visibility Wind Speed Wind Dir Waves Ship Positions
date/time (UTC)wind fromknots sea level pressurealtimeterstation pressurevisibilityair tempwater tempwave heightnotes
2020-Jun-06 21:40 102 3 11.6
2020-Jun-06 21:30 116 6 13.2
2020-Jun-06 21:20 168 2 13.2
2020-Jun-06 21:10 111 0 12.6
2020-Jun-06 21:00 082 1 12.6
2020-Jun-06 20:50 188 2 13.7
2020-Jun-06 20:40 208 1 13.6
2020-Jun-06 20:20 213 1 13.1
2020-Jun-06 20:10 277 0 13.0
2020-Jun-06 20:00 264 0 12.7
2020-Jun-06 19:50 257 1 12.6
2020-Jun-06 19:40 251 1 12.5
2020-Jun-06 19:30 225 0 12.3
2020-Jun-06 19:10 170 2 11.8
2020-Jun-06 18:50 192 1 11.7
2020-Jun-06 18:40 202 1 11.6
2020-Jun-06 18:30 207 1 12.0
2020-Jun-06 18:20 169 0 12.2
2020-Jun-06 18:10 234 2 12.0
2020-Jun-06 18:00 240 3 12.0
2020-Jun-06 17:50 245 4 11.7
2020-Jun-06 17:40 212 2 11.8
2020-Jun-06 17:30 220 0 11.8
2020-Jun-06 17:20 230 1 11.5
2020-Jun-06 17:10 209 0 11.4
2020-Jun-06 17:00 224 1 11.1
2020-Jun-06 16:50 228 2 11.1
2020-Jun-06 16:40 158 1 11.3
2020-Jun-06 16:30 189 1 10.9
2020-Jun-06 16:20 212 1 10.6
2020-Jun-06 16:10 245 3 10.6
2020-Jun-06 16:00 229 2 10.5
2020-Jun-06 15:40 283 1 9.6
2020-Jun-06 15:30 219 0 9.2
2020-Jun-06 15:20 238 1 9.1
2020-Jun-06 15:10 243 2 9.0
2020-Jun-06 15:00 246 2 8.9
2020-Jun-06 14:50 255 2 8.9
2020-Jun-06 14:30 191 1 8.6
2020-Jun-06 14:20 237 2 8.4
2020-Jun-06 14:00 243 2 8.1
2020-Jun-06 13:50 245 2 8.1
2020-Jun-06 13:40 255 2 8.0
2020-Jun-06 13:30 172 2 8.1
2020-Jun-06 13:10 005 1 8.1
2020-Jun-06 13:00 185 1 8.2
2020-Jun-06 12:50 164 2 8.2
2020-Jun-06 12:40 179 2 8.4
2020-Jun-06 12:30 175 1 8.5
2020-Jun-06 12:10 161 2 7.7
2020-Jun-06 12:00 152 4 7.8
2020-Jun-06 11:50 151 3 7.8
2020-Jun-06 11:40 153 3 7.9
2020-Jun-06 11:30 173 3 8.0
2020-Jun-06 11:20 188 1 7.9
2020-Jun-06 11:10 180 3 7.9
2020-Jun-06 11:00 174 3 7.9
2020-Jun-06 10:40 172 4 8.3
2020-Jun-06 10:30 162 3 8.4
2020-Jun-06 10:20 178 3 8.6
2020-Jun-06 10:00 182 3 9.1
2020-Jun-06 09:50 169 4 8.7
2020-Jun-06 09:40 156 4 9.0
2020-Jun-06 09:30 159 3 10.0
2020-Jun-06 09:20 155 4 9.6
2020-Jun-06 09:10 179 2 10.1
2020-Jun-06 09:00 178 2 9.0
2020-Jun-06 08:50 182 3 9.0
2020-Jun-06 08:40 161 2 9.6
2020-Jun-06 08:30 167 3 9.8
2020-Jun-06 08:20 125 1 10.6
2020-Jun-06 08:00 205 0 10.4
2020-Jun-06 07:50 236 2 10.5
2020-Jun-06 07:40 125 1 10.9
2020-Jun-06 07:30 098 1 10.9
2020-Jun-06 07:20 114 1 10.8
2020-Jun-06 07:10 093 2 11.0
2020-Jun-06 06:50 018 3 11.4
2020-Jun-06 06:40 034 1 11.6
2020-Jun-06 06:30 023 2 11.8
2020-Jun-06 06:20 020 2 11.9
2020-Jun-06 06:10 014 1 11.4
2020-Jun-06 06:00 187 0 11.7
2020-Jun-06 05:50 219 0 12.3
2020-Jun-06 05:40 025 1 12.8
2020-Jun-06 05:30 336 2 13.2
2020-Jun-06 05:20 312 3 13.5
2020-Jun-06 05:10 331 2 13.6
2020-Jun-06 05:00 351 2 13.7
2020-Jun-06 04:50 319 0 13.9
2020-Jun-06 04:40 352 0 14.0
2020-Jun-06 04:30 330 1 14.4
2020-Jun-06 04:20 336 2 14.4
2020-Jun-06 04:00 326 1 13.8
2020-Jun-06 03:40 016 3 13.2
2020-Jun-06 03:30 040 3 13.1
2020-Jun-06 03:20 016 3 13.3
2020-Jun-06 03:00 003 2 14.0
2020-Jun-06 02:50 026 4 14.4
2020-Jun-06 02:40 039 3 15.0
2020-Jun-06 02:30 006 3 16.0
2020-Jun-06 02:20 279 4 16.0
2020-Jun-06 02:10 296 6 15.9
2020-Jun-06 02:00 319 2 16.0
2020-Jun-06 01:50 339 3 16.0
2020-Jun-06 01:30 263 6 15.3
2020-Jun-06 01:20 267 4 15.0
2020-Jun-06 01:10 262 7 15.5
2020-Jun-06 00:50 282 6 15.3
2020-Jun-06 00:40 263 7 15.4
2020-Jun-06 00:30 240 3 16.0
2020-Jun-06 00:20 251 8 15.9
2020-Jun-06 00:10 004 2 15.9
2020-Jun-06 00:00 255 2 16.2
2020-Jun-05 23:40 313 3 16.0
2020-Jun-05 23:30 091 1 16.4
2020-Jun-05 23:20 152 2 16.2
2020-Jun-05 23:10 207 1 16.2
2020-Jun-05 23:00 189 2 16.6
2020-Jun-05 22:50 325 1 15.8
2020-Jun-05 22:30 331 3 15.6
2020-Jun-05 22:20 311 5 15.1
2020-Jun-05 22:00 240 3 14.1
2020-Jun-05 21:50 226 1 14.8
2020-Jun-05 21:40 218 2 14.7
2020-Jun-05 21:30 242 1 14.9
2020-Jun-05 21:20 353 5 13.9
2020-Jun-05 21:10 306 6 14.2
2020-Jun-05 21:00 033 0 15.3
2020-Jun-05 20:40 175 6 14.1
2020-Jun-05 20:30 212 2 14.0
2020-Jun-05 20:20 247 3 13.8
2020-Jun-05 20:00 145 4 14.7
2020-Jun-05 19:50 195 1 14.1
2020-Jun-05 19:40 154 4 13.8
2020-Jun-05 19:30 132 7 13.5
2020-Jun-05 19:20 086 6 13.5
2020-Jun-05 19:10 065 5 13.4
2020-Jun-05 18:50 138 4 12.7
2020-Jun-05 18:40 105 5 12.4
2020-Jun-05 18:30 134 5 12.2
2020-Jun-05 18:20 080 3 11.3
2020-Jun-05 18:10 042 4 11.0
2020-Jun-05 18:00 094 4 11.4
2020-Jun-05 17:50 061 2 10.8
2020-Jun-05 17:40 094 3 10.2
2020-Jun-05 17:30 038 4 10.0
2020-Jun-05 17:20 088 2 10.1
2020-Jun-05 17:10 091 5 10.2
2020-Jun-05 17:00 065 5 10.5
2020-Jun-05 16:50 091 4 10.0
2020-Jun-05 16:40 102 5 10.3
2020-Jun-05 16:30 089 7 10.1
2020-Jun-05 16:20 072 4 9.6
2020-Jun-05 16:00 074 8 9.7
2020-Jun-05 15:50 055 4 9.5
2020-Jun-05 15:40 058 4 9.2
2020-Jun-05 15:30 035 6 9.4
2020-Jun-05 15:20 042 4 9.3
2020-Jun-05 15:10 032 3 9.2
2020-Jun-05 14:50 084 5 9.6
2020-Jun-05 14:40 082 7 9.4
2020-Jun-05 14:30 068 5 9.4
2020-Jun-05 14:20 097 2 9.3
2020-Jun-05 14:10 078 2 9.4
2020-Jun-05 14:00 054 4 9.2
2020-Jun-05 13:50 055 3 9.0
2020-Jun-05 13:40 092 4 9.1
2020-Jun-05 13:30 100 2 8.8
2020-Jun-05 13:20 094 4 8.7
2020-Jun-05 13:00 092 3 8.7
2020-Jun-05 12:50 135 7 8.7
2020-Jun-05 12:40 113 3 8.7
2020-Jun-05 12:30 120 6 8.6
2020-Jun-05 12:20 096 4 8.7
2020-Jun-05 12:10 106 6 8.8
2020-Jun-05 12:00 102 3 8.8
2020-Jun-05 11:50 107 4 8.8
2020-Jun-05 11:40 125 7 8.7
2020-Jun-05 11:30 101 6 8.6
2020-Jun-05 11:20 143 7 8.7
2020-Jun-05 11:10 100 4 8.7
2020-Jun-05 11:00 087 3 8.7
2020-Jun-05 10:50 129 6 8.6
2020-Jun-05 10:40 094 3 8.7
2020-Jun-05 10:30 099 7 8.8
2020-Jun-05 10:20 111 5 8.7
2020-Jun-05 10:10 117 7 8.7
2020-Jun-05 10:00 099 4 8.7
2020-Jun-05 09:50 126 6 8.8
2020-Jun-05 09:40 136 3 8.9
2020-Jun-05 09:30 129 7 8.9
2020-Jun-05 09:20 108 7 8.9
2020-Jun-05 09:00 119 4 8.9
2020-Jun-05 08:50 098 5 8.9
2020-Jun-05 08:40 108 5 9.0
2020-Jun-05 08:20 114 4 9.0
2020-Jun-05 08:10 096 4 8.9
2020-Jun-05 08:00 112 5 8.9
2020-Jun-05 07:40 099 5 9.0
2020-Jun-05 07:30 085 3 9.1
2020-Jun-05 07:10 071 4 9.0
2020-Jun-05 06:50 096 4 8.9
2020-Jun-05 06:40 104 3 9.0
2020-Jun-05 06:30 110 4 9.0
2020-Jun-05 06:20 129 4 9.0
2020-Jun-05 06:10 118 4 9.0
2020-Jun-05 06:00 108 3 9.0
2020-Jun-05 05:50 131 4 9.2
2020-Jun-05 05:40 114 4 9.2
2020-Jun-05 05:30 119 3 9.2
2020-Jun-05 05:20 094 2 9.3
2020-Jun-05 05:10 102 4 9.4
2020-Jun-05 05:00 092 2 9.6
2020-Jun-05 04:50 095 4 9.7
2020-Jun-05 04:40 081 4 9.8
2020-Jun-05 04:30 077 2 10.1
2020-Jun-05 04:20 110 2 10.2
2020-Jun-05 04:10 093 2 10.1
2020-Jun-05 03:50 107 2 10.1
2020-Jun-05 03:40 103 1 10.3
2020-Jun-05 03:30 100 1 10.3
2020-Jun-05 03:20 095 1 10.3
2020-Jun-05 03:10 097 2 10.4
2020-Jun-05 03:00 119 2 10.1
2020-Jun-05 02:50 141 1 10.1
2020-Jun-05 02:40 111 2 10.1
2020-Jun-05 02:30 126 3 10.2
2020-Jun-05 02:20 109 1 10.3
2020-Jun-05 02:10 142 3 10.6
2020-Jun-05 02:00 140 3 10.3
2020-Jun-05 01:50 094 3 9.8
2020-Jun-05 01:40 106 2 10.1
2020-Jun-05 01:30 097 2 10.1
2020-Jun-05 01:20 090 3 10.4
2020-Jun-05 01:10 098 6 10.5
2020-Jun-05 01:00 101 8 10.8
2020-Jun-05 00:50 088 5 10.8
2020-Jun-05 00:40 105 3 10.5
2020-Jun-05 00:30 116 3 10.6
2020-Jun-05 00:20 123 3 10.3
2020-Jun-05 00:10 097 4 10.4
2020-Jun-05 00:00 117 9 10.6
2020-Jun-04 23:50 091 9 10.7
2020-Jun-04 23:40 114 6 10.6
2020-Jun-04 23:30 114 6 10.1
2020-Jun-04 23:20 083 3 10.0
2020-Jun-04 23:10 079 4 9.9
2020-Jun-04 23:00 126 5 10.0
2020-Jun-04 22:50 107 6 10.0
2020-Jun-04 22:40 072 3 10.0
2020-Jun-04 22:30 105 3 9.6
2020-Jun-04 22:20 112 4 9.5
2020-Jun-04 22:10 112 6 9.0
2020-Jun-04 22:00 093 4 9.0